Regional Weather Roundup
Issued by NWS

Home | Current Version | Previous Version | Graphics & Text | Print | Product List | Glossary On
Versions: 1 2 3 4 5 6 7 8 9 10 11 12 13 14 15 16 17 18 19 20 21 22 23 24 25 26 27 28 29 30 31 32 33 34 35 36 37 38 39 40 41 42 43 44 45 46 47 48 49 50
000
ASUS45 KBOI 220110
RWRID
WEATHER ROUNDUP FOR IDAHO
NATIONAL WEATHER SERVICE BOISE ID
600 PM MST SUN DEC 21 2014

NOTE: "FAIR" INDICATES FEW OR NO CLOUDS BELOW 12000 FEET
WITH NO SIGNIFICANT WEATHER AND/OR OBSTRUCTIONS TO VISIBILITY

IDZ012-014-220200-
SOUTHWEST IDAHO


CITY           SKY/WX    TMP DP  RH WIND       PRES   REMARKS
BOISE          LGT RAIN  42  39  89 NW8       30.07R
CALDWELL       CLOUDY    45  34  65 W9        30.09R
MOUNTAIN HOME  LGT RAIN  42  38  89 NW17      30.06R
$$

IDZ016-017-220200-
SOUTHCENTRAL IDAHO


CITY           SKY/WX    TMP DP  RH WIND       PRES   REMARKS
BURLEY         MOCLDY    40  36  86 W16G30    29.96R WCI  31
JEROME         CLOUDY    39  37  92 SW22G29   30.00R WCI  29
TWIN FALLS     LGT RAIN  40  36  86 W25G35    30.02R WCI  29
$$

IDZ019>023-220200-
SOUTHEAST IDAHO


CITY           SKY/WX    TMP DP  RH WIND       PRES   REMARKS
IDAHO FALLS    MOCLDY    39  31  72 W12       29.84R WCI  32
POCATELLO      CLEAR     40  37  89 W15       29.92R WCI  32
REXBURG        PTCLDY    37  32  82 CALM      29.83R
$$

IDZ006-010-011-018-031-032-220200-
CENTRAL IDAHO MOUNTAINS


CITY           SKY/WX    TMP DP  RH WIND       PRES   REMARKS
MCCALL         CLOUDY    33  31  92 CALM      29.97R
HAILEY           N/A     39  32  75 NW8       29.89R WCI  34
STANLEY          N/A     32  23  69 N8        29.95R WCI  25
SALMON         MOCLDY    43  23  45 NW7       29.87R
CHALLIS        CLOUDY    38  23  55 NW7       29.89R WCI  33
$$

IDZ002-004-006-007-026-220200-
NORTHERN IDAHO


CITY           SKY/WX    TMP DP  RH WIND       PRES   REMARKS
LEWISTON       MOCLDY    49  36  61 SW6       29.94R
LOWELL           N/A     44  42  93 CALM      29.96R
COEUR D`ALENE  CLOUDY    45  37  76 SW13      29.87R
MULLAN PASS    MIX PCPN  29  26  89 NW9       29.82R WCI  20
$$


USA.gov is the U.S. government's official web portal to all federal, state and local government web resources and services.